Regional Weather Roundup
Issued by NWS

Home | Current Version | Previous Version | Text Only | Print | Product List | Glossary Off
Versions: 1 2 3 4 5 6 7 8 9 10 11 12 13 14 15 16 17 18 19 20 21 22 23 24 25 26 27 28 29 30 31 32 33 34 35 36 37 38 39 40 41 42 43 44 45 46 47 48 49 50

000
ASUS45 KTFX 031819
RWRMT
MONTANA HOURLY WEATHER ROUNDUP
NATIONAL WEATHER SERVICE GREAT FALLS MT
1119 AM MST TUE MAR 3 2015

NOTE: "FAIR" INDICATES FEW OR NO CLOUDS BELOW 12000 FEET WITH NO
SIGNIFICANT WEATHER AND/OR OBSTRUCTIONS TO VISIBILITY.

* THESE STATIONS ARE NOT UNDER NWS QUALITY CONTROL. THEY DO NOT
   REPORT WEATHER SUCH AS PRECIPITATION OR FOG.

MTZ001>007-043-031900-
WEST OF THE DIVIDE
CITY           SKY/WX    TMP DP  RH WIND       PRES   REMARKS
KALISPELL      SUNNY     23  -2  33 N3        30.17R
MISSOULA       SUNNY     21   0  40 E13       30.16S WCI   8
BUTTE          SUNNY      9  -4  55 CALM      29.98F
MULLAN PASS    FOG       10   9  96 CALM      29.94R VSB 3
* ANACONDA     SUNNY     12  -8  40 N/A        N/A
* ESSEX        N/A       16  -4  40 N/A        N/A
* EUREKA APT   SUNNY     21   0  40 SW3       30.19F
* HAMILTON APT PTCLDY    19   0  43 NE2       30.11F
* LIBBY APT    SUNNY     21   5  50 CALM      30.20F
* LINCOLN      N/A        8  -8  47 S1G6       N/A
* LOOKOUT PASS N/A       16   7  67 VRB4       N/A
* POLSON       N/A       20   8  59 E3         N/A
* RONAN APT    SUNNY     21   1  41 N/A        N/A
* SEELEY LAKE  N/A       18  -7  32 N2         N/A
* THOMP F APT  SUNNY     14  -3  46 N6G26      N/A   WCI   5
$$

MTZ008-052>055-031900-
SOUTHWEST MONTANA
CITY           SKY/WX    TMP DP  RH WIND       PRES   REMARKS
BOZEMAN        PTCLDY    10   1  67 S12       30.07F WCI  -5
DILLON         SUNNY     12   0  58 E9        29.99F
* W YELLOWSTON SUNNY     14  -6  40 NE5G13     N/A   WCI   6
* THREE FORKS  SUNNY     16  -6  37 N/A        N/A
* BOULDER HILL N/A        3  -3  76 NE6        N/A   WCI  -8
* MONIDA PASS  N/A        7  -1  69 NW12       N/A   WCI  -9
* RAYNOLDS PAS N/A        0  -1  95 N21        N/A   WCI -22
* WHITEHALL    N/A       16  -2  45 E6         N/A   WCI   7
* WISE RIVER   N/A       11  -6  46 N2G7       N/A
$$

MTZ009>010-012-014-046-048-049-054-031900-
EAST SLOPES AND CENTRAL MONTANA
CITY           SKY/WX    TMP DP  RH WIND       PRES   REMARKS
CUT BANK       SUNNY      9   0  66 S3        30.11F
GREAT FALLS    SUNNY      9   3  76 SW9       30.14F WCI  -4
HELENA         PTCLDY    16   0  49 CALM      30.12F
MALMSTROM AFB  PTCLDY    10   5  80 SW12      30.17F WCI  -5
* CONRAD       SUNNY      9   0  66 SW7        N/A   WCI  -2
* DEARBORN     N/A       10  -1  61 S3         N/A
* EAST GLACIER N/A        1  -6  72 SE6        N/A   WCI -11
* MONARCH      N/A        7  -4  60 N/A        N/A
* PENDROY      N/A        6  -1  73 SW9        N/A   WCI  -8
* ROGERS PASS  N/A        6  -3  66 NE4G9      N/A
* SWEET GRASS  N/A        6  -7  55 NW9        N/A   WCI  -8
* WHITE SULPH  N/A       10  -9  41 N7G12      N/A   WCI  -1
$$

MTZ011-013-016-021-035-040-045-047-050-051-031900-
NORTH CENTRAL MONTANA
CITY           SKY/WX    TMP DP  RH WIND       PRES   REMARKS
HAVRE          SUNNY     14  -4  44 NW16      30.20F WCI  -2
LEWISTOWN      SUNNY      9  -6  50 NW16      30.08F WCI  -8
* N BAR RANCH  SUNNY      7  -9  47 NW20G28   30.03F WCI -13
* CHINOOK      SUNNY     12  -6  44 W18G26    30.20F WCI  -5
* FORT BENTON  SUNNY     16  -4  40 W13       30.21F WCI   2
* MALTA APT    SUNNY     12  -8  40 W18G26     N/A   WCI  -5
* CHESTER      N/A       10  -6  48 NW10G17    N/A   WCI  -4
* DENTON       N/A       10  -3  55 NW16G22    N/A   WCI  -7
* GEYSER       N/A        9  -2  61 W14G20     N/A   WCI  -7
* JUDITH GAP   N/A        4  -3  72 N22G27     N/A   WCI -18
* LOMA         N/A       13  -2  51 W15G20     N/A   WCI  -3
$$

MTZ017>020-022>027-061-062-031900-
NORTHEAST MONTANA
CITY           SKY/WX    TMP DP  RH WIND       PRES   REMARKS
GLASGOW        PTSUNNY   12  -6  44 NW25G32   30.14F WCI  -8
GLENDIVE       CLOUDY    12  -2  53 NW21G29   30.09F WCI  -7
JORDAN         SUNNY     12  -2  53 NW26G36   30.14F WCI  -8
SIDNEY         PTSUNNY   10   0  64 W23       30.13F WCI -10
WOLF POINT     PTSUNNY   12  -4  48 W21G30    30.15F WCI  -7
* BEAVER HILL  N/A        8  -3  60 W26G31     N/A   WCI -14
* CIRCLE       N/A       11  -2  55 W18G28     N/A   WCI  -7
* LINDSAY DVD  N/A        8  -2  63 W22G34     N/A   WCI -12
* NAVAJO       N/A        1  -9  62 NW24G31    N/A   WCI -22
* PLENTYWOOD A SUNNY      1  -8  65 NW30G36   30.04F WCI -25
* POPLAR APT   SUNNY      9  -8  45 W20G28    30.13F WCI -10
* SACO         N/A       11  -5  48 NW19G27    N/A   WCI  -7
* SCOBEY APT   SUNNY      3 -11  51 W25G35     N/A   WCI -20
$$

MTZ028>042-056>058-031900-
SOUTHCENTRAL AND SOUTHEAST MONTANA
CITY           SKY/WX    TMP DP  RH WIND       PRES   REMARKS
BAKER          CLOUDY    10  -4  53 NW26G32   30.05F WCI -11
BILLINGS       LGT SNOW  12   7  80 SW8       30.11F VSB 3
LIVINGSTON     PTCLDY    12  -4  48 NW8       30.05F
MILES CITY     PTSUNNY   16   0  49 NW17G29   30.14F
* BIG TIMBER A PTCLDY    10   1  67 SW9       30.06F WCI  -3
* FORSYTH APT  PTCLDY    12  -2  53 NW14G28   30.15F WCI  -4
* LAUREL APT   PTCLDY    14  -6  40 NW6        N/A   WCI   5
* ROUNDUP APT  SUNNY     16  -6  37 N/A        N/A
* ALZADA       N/A       11   1  64 W13G18     N/A   WCI  -4
* HYSHAM       N/A       12  -2  53 W12G20     N/A   WCI  -2
* REED POINT   N/A       15   2  56 W8         N/A   WCI   4
$$

REGIONAL REPORTS...DAKOTAS
CITY           SKY/WX    TMP DP  RH WIND       PRES   REMARKS
WILLISTON      CLOUDY     7  -6  55 NW28G35   30.09F WCI -16
DICKINSON      PTSUNNY   10  -6  48 W30G39    29.98F WCI -12
BEACH          LGT SNOW   9   0  66 NW29G35   30.05F WCI -13
CROSBY         HAZE       1  -6  72 NW25G31   30.07S WCI -23
TIOGA          LGT SNOW   1  -4  79 NW26G35   30.05S WCI -23
WATFORD CITY   PTCLDY     5  -6  60 W24G30    30.06F WCI -17
BISMARCK       PTSUNNY   10  -4  53 NW28G38   30.04F WCI -12
GRAND FORKS    PTSUNNY   10   0  64 NW25G33   29.90R WCI -11
FARGO          LGT SNOW  14   3  61 NW31G38   29.90R WCI  -7
BUFFALO SD     SUNNY     12  -2  53 NW32G39   29.94S WCI -10
RAPID CITY     CLOUDY    16   3  56 N25G31    30.01F WCI  -3
$$

REGIONAL REPORTS...WYOMING/IDAHO/WASHINGTON
CITY           SKY/WX    TMP DP  RH WIND       PRES   REMARKS
GILLETTE       HAZE      10   3  73 N15       29.99S VSB 1 1/4 WCI  -7
SHERIDAN       HAZE      10   3  73 NW17      30.07S WCI  -8
CODY           CLOUDY     7   0  73 N15       29.98F WCI -10
YELLOWSTONE LA PTCLDY    10  -4  53 VRB3      29.77R
SALMON         PTCLDY    25   1  35 CALM      30.02F
MULLAN PASS    FOG       10   9  96 CALM      29.94S VSB 3
SAND POINT     PTSUNNY   28   5  37 NE5       30.20S WCI  22
SPOKANE        SUNNY     28  14  56 NE6       30.16F WCI  21
$$

REGIONAL REPORTS...ALBERTA
CITY           SKY/WX    TMP DP  RH WIND       PRES   REMARKS
CALGARY        SUNNY     12  -9  38 NW9       30.11F
LETHBRIDGE     SUNNY     10   0  64 W10G17    30.18F WCI  -4
MEDICINE HAT   SUNNY     12  -2  53 W15       30.20F WCI  -4
EDMONTON       SUNNY      7  -8  50 W15       30.17F WCI -10
WATERTON GATE  N/A        9   3  76 NE3        N/A
CARDSTON       N/A        5  -2  72 SE5        N/A   WCI  -5
MILK RIVER     N/A        5  -4  66 W10        N/A   WCI -10
$$

REGIONAL REPORTS...SASKATCHEWAN
CITY           SKY/WX    TMP DP  RH WIND       PRES   REMARKS
SWIFT CURRENT  SUNNY      1  -9  62 NW22G30   30.05F WCI -22
MOOSE JAW      SNOW       0  -9  65 NW23      30.08F WCI -23
REGINA         SNOW      -2  -9  72 NW25G33   30.03F WCI -27
VAL MARIE      N/A        7  -6  55 NW21G29    N/A   WCI -13
ASSINIBOIA     N/A        0  -8  68 NW22G29    N/A   WCI -23
CORONACH       N/A        3  -4  72 NW23G30    N/A   WCI -19

$$



USA.gov is the U.S. government's official web portal to all federal, state and local government web resources and services.